[[{"header":{"parameterUnit":"m.s-1","parameterCategory":1,"la1":30.2991,"la2":30.254,"lo1":-89.0895,"lo2":-89.0444,"dy":0.0017,"dx":0.0017,"nx":28,"ny":28,"refTime":"2025-04-28T09:00:00:Z","depth":0,"parameterNumber":2,"parameterNumberName":"U-component_of_WINDS"},"data":[0,0,0,0,0,0,0,0,0,0,0,0,0,0,0,0,0,0,0,0,0,0,0,0,0,0,0,0,0,0,0,0,0,0,0,0,0,0,0,0,0,0,0,0,0,0,0,0,0,0,0,0,0,0,0,0,0,0,-0.4335,-0.4335,0,-0.4369,-0.437,-0.437,-0.4389,-0.4389,-0.4389,-0.4389,-0.4425,-0.4426,-0.4427,0,0,0,0,0,0,0,0,0,0,0,0,0,-0.4285,-0.4286,-0.4335,-0.4335,-0.4335,-0.4369,-0.437,-0.437,-0.4389,-0.4389,-0.4389,-0.4389,-0.4425,-0.4426,-0.4427,0,0,0,0,0,0,0,0,0,0,0,0,0,-0.4312,-0.4286,-0.4334,-0.4349,-0.435,-0.4369,-0.437,-0.437,-0.4389,-0.4389,-0.4389,-0.4389,-0.4424,-0.4426,-0.4427,-0.4435,0,0,-0.4431,-0.4432,0,0,0,0,0,0,0,0,-0.431,-0.4314,-0.4346,-0.4348,-0.435,-0.4375,-0.4366,-0.4392,-0.4389,-0.4374,-0.4389,-0.4389,-0.4408,-0.4411,-0.4417,-0.4436,-0.4438,-0.4431,-0.4432,-0.4433,-0.4433,0,0,0,0,0,0,0,-0.4308,-0.4312,-0.4348,-0.4347,-0.4349,-0.4354,-0.4358,-0.4371,-0.4391,-0.4376,-0.4377,-0.4381,-0.4409,-0.4416,-0.4418,-0.4438,-0.4431,-0.4433,-0.4434,-0.4434,-0.4466,-0.4466,0,0,0,0,0,0,-0.4304,-0.4311,-0.4347,-0.4349,-0.433,-0.4355,-0.4359,-0.4367,-0.439,-0.4394,-0.4381,-0.4382,-0.4414,-0.4417,-0.442,-0.4431,-0.4433,-0.4434,-0.4435,-0.4466,-0.4466,-0.4466,0,0,0,0,0,0,-0.4303,-0.4307,-0.4346,-0.433,-0.4336,-0.4355,-0.4364,-0.4367,-0.4374,-0.4394,-0.4398,-0.4384,-0.4414,-0.4418,-0.4431,-0.4432,-0.4435,-0.4436,-0.4466,-0.4466,-0.4466,-0.4453,0,0,0,0,0,0,-0.4302,-0.4307,-0.4309,-0.433,-0.4336,-0.4356,-0.4364,-0.4368,-0.4377,-0.4378,-0.4398,-0.4402,-0.4414,-0.4429,-0.4432,-0.4434,-0.4437,-0.4466,-0.4466,-0.4466,-0.4453,-0.4452,-0.4452,0,0,0,0,0,-0.43,-0.4304,-0.4309,-0.4314,-0.434,-0.4356,-0.436,-0.4374,-0.4376,-0.438,-0.4393,-0.4401,-0.4432,-0.443,-0.4434,-0.4437,-0.4466,-0.4466,-0.4466,-0.4454,-0.4453,-0.4452,0,0,0,0,0,0,-0.4283,-0.4307,-0.4313,-0.4325,-0.4338,-0.4359,-0.4364,-0.4372,-0.4385,-0.4386,-0.4403,-0.4407,-0.4419,-0.4429,-0.4427,-0.4446,-0.445,-0.4451,-0.4439,-0.4438,-0.4437,-0.4435,-0.4438,0,0,0,0,0,-0.428,-0.4291,-0.4312,-0.432,-0.4326,-0.4344,-0.4351,-0.4361,-0.4376,-0.4382,-0.4396,-0.441,-0.4423,-0.4431,-0.4444,-0.4455,-0.446,-0.4459,-0.4458,-0.4457,-0.4458,-0.4465,-0.4465,-0.4467,-0.4467,-0.4467,0,0,-0.4275,-0.429,-0.4296,-0.4317,-0.4328,-0.4339,-0.4348,-0.4359,-0.4368,-0.4383,-0.4397,-0.4408,-0.4425,-0.4437,-0.4443,-0.4446,-0.4458,-0.4457,-0.4456,-0.4458,-0.4465,-0.4465,-0.4465,-0.4467,-0.4467,-0.4467,0,0,-0.4272,-0.4284,-0.4292,-0.4304,-0.4322,-0.4334,-0.4336,-0.4356,-0.4364,-0.4377,-0.4389,-0.44,-0.4421,-0.4433,-0.4442,-0.4445,-0.4453,-0.4448,-0.4444,-0.4452,-0.4451,-0.4451,-0.4453,-0.4453,-0.4449,-0.4449,-0.4449,0,-0.4264,-0.4281,-0.4296,-0.4306,-0.4316,-0.433,-0.4339,-0.435,-0.4371,-0.4377,-0.4379,-0.4408,-0.442,-0.4436,-0.4437,-0.4443,-0.4446,-0.4446,-0.445,-0.445,-0.4451,-0.4452,-0.4453,-0.4448,-0.4448,-0.4448,-0.4449,0,-0.427,-0.4282,-0.4287,-0.4307,-0.4316,-0.4326,-0.4343,-0.4351,-0.436,-0.4372,-0.4386,-0.4402,-0.4419,-0.4423,-0.4432,-0.444,-0.4442,-0.4447,-0.4451,-0.445,-0.4451,-0.4452,-0.4447,-0.4448,-0.4448,-0.4448,0,0,-0.4257,-0.4286,-0.4287,-0.4297,-0.4318,-0.4327,-0.4338,-0.4355,-0.4362,-0.4376,-0.4386,-0.4404,-0.441,-0.442,-0.443,-0.4436,-0.4438,-0.4441,-0.4442,-0.4441,-0.445,-0.4446,-0.4446,-0.4444,-0.4444,-0.4444,-0.4448,0,-0.4257,-0.4277,-0.4291,-0.4306,-0.4317,-0.4331,-0.4341,-0.4355,-0.4366,-0.4378,-0.4391,-0.4404,-0.441,-0.4416,-0.4423,-0.4436,-0.444,-0.4436,-0.4454,-0.4454,-0.4449,-0.4447,-0.4443,-0.4446,-0.4449,-0.4449,-0.4449,0,-0.426,-0.4274,-0.429,-0.431,-0.4316,-0.4324,-0.4341,-0.4351,-0.4368,-0.4376,-0.4388,-0.4399,-0.4411,-0.4415,-0.4433,-0.443,-0.4438,-0.4446,-0.4446,-0.4449,-0.4452,-0.445,-0.4447,-0.4448,-0.4451,-0.445,-0.445,0,-0.425,-0.4273,-0.4285,-0.4293,-0.4317,-0.4323,-0.4333,-0.435,-0.4359,-0.4374,-0.438,-0.4396,-0.4405,-0.4417,-0.4432,-0.4433,-0.4449,-0.4453,-0.4456,-0.4456,-0.4459,-0.4459,-0.4458,-0.4464,-0.4464,-0.4464,-0.4464,0,-0.4249,-0.4258,-0.4281,-0.4289,-0.43,-0.4316,-0.4327,-0.4338,-0.4353,-0.4364,-0.4377,-0.4387,-0.4406,-0.4418,-0.443,-0.4444,-0.4448,-0.4455,-0.4458,-0.4454,-0.4453,-0.4459,-0.446,-0.4464,-0.4464,-0.4464,-0.4464,0,-0.4239,-0.4255,-0.427,-0.4291,-0.4297,-0.4304,-0.4323,-0.4332,-0.4344,-0.4357,-0.4362,-0.4381,-0.4396,-0.4412,-0.4433,-0.4441,-0.4455,-0.4459,-0.4449,-0.4451,-0.4453,-0.4453,-0.4457,-0.4459,-0.4462,-0.4462,-0.4462,0,-0.4238,-0.4245,-0.4268,-0.4276,-0.4286,-0.4299,-0.4309,-0.4325,-0.4335,-0.4355,-0.4361,-0.4377,-0.4391,-0.4415,-0.4431,-0.4448,-0.4452,-0.4453,-0.4455,-0.4451,-0.4453,-0.4453,-0.4454,-0.4452,-0.4452,-0.4452,-0.4452,0,-0.4234,-0.4241,-0.4255,-0.4271,-0.4282,-0.4296,-0.431,-0.4316,-0.4335,-0.4346,-0.4361,-0.4372,-0.4394,-0.441,-0.4428,-0.444,-0.4449,-0.4451,-0.4453,-0.4449,-0.4443,-0.4447,-0.4447,-0.4451,-0.4451,-0.4451,-0.4451,-0.4451,-0.4229,-0.4236,-0.4254,-0.4268,-0.4281,-0.4294,-0.4303,-0.4317,-0.433,-0.4349,-0.4358,-0.4374,-0.4392,-0.4417,-0.4428,-0.4441,-0.4444,-0.4446,-0.4447,-0.4447,-0.4447,-0.4441,-0.4445,-0.4445,-0.4445,-0.4445,-0.4445,0,-0.4226,-0.4238,-0.4251,-0.4271,-0.4282,-0.429,-0.4307,-0.4316,-0.433,-0.4345,-0.4359,-0.4378,-0.4394,-0.4412,-0.4429,-0.4436,-0.4441,-0.444,-0.444,-0.4443,-0.4443,-0.444,-0.4436,-0.4436,-0.4436,-0.4436,-0.4436,-0.4436,-0.4226,-0.4239,-0.4249,-0.4269,-0.4281,-0.4297,-0.4306,-0.4318,-0.4331,-0.4351,-0.4365,-0.4376,-0.4393,-0.4411,-0.4427,-0.4432,-0.4438,-0.4436,-0.4442,-0.4442,-0.4442,-0.4443,-0.444,-0.4437,-0.4437,-0.444,-0.444,-0.444]},{"header":{"parameterUnit":"m.s-1","parameterCategory":1,"la1":30.2991,"la2":30.254,"lo1":-89.0895,"lo2":-89.0444,"dy":0.0017,"dx":0.0017,"nx":28,"ny":28,"refTime":"2025-04-28T09:00:00:Z","depth":0,"parameterNumber":3,"parameterNumberName":"V-component_of_WINDS"},"data":[0,0,0,0,0,0,0,0,0,0,0,0,0,0,0,0,0,0,0,0,0,0,0,0,0,0,0,0,0,0,0,0,0,0,0,0,0,0,0,0,0,0,0,0,0,0,0,0,0,0,0,0,0,0,0,0,0,0,2.9487,2.9487,0,2.9478,2.9478,2.9478,2.942,2.9418,2.9417,2.9416,2.9407,2.9408,2.9409,0,0,0,0,0,0,0,0,0,0,0,0,0,2.9454,2.9455,2.9487,2.9487,2.9487,2.9478,2.9478,2.9478,2.942,2.9418,2.9417,2.9415,2.9407,2.9408,2.941,0,0,0,0,0,0,0,0,0,0,0,0,0,2.9459,2.9456,2.9487,2.9457,2.9454,2.9478,2.9478,2.9478,2.942,2.9418,2.9416,2.9414,2.9407,2.9408,2.941,2.9462,0,0,2.9415,2.9415,0,0,0,0,0,0,0,0,2.9459,2.946,2.9461,2.9459,2.9456,2.9448,2.9463,2.9472,2.9421,2.9433,2.9416,2.9413,2.9423,2.9423,2.9426,2.9462,2.9461,2.9415,2.9416,2.9417,2.9417,0,0,0,0,0,0,0,2.9459,2.9461,2.9483,2.9461,2.9458,2.9444,2.9442,2.9465,2.944,2.9432,2.9428,2.9427,2.9421,2.9424,2.9425,2.9461,2.9415,2.9416,2.9417,2.9418,2.9538,2.954,0,0,0,0,0,0,2.9463,2.9461,2.9483,2.9483,2.9452,2.9446,2.9444,2.9452,2.9439,2.9435,2.9429,2.9425,2.9423,2.9423,2.9425,2.9484,2.9417,2.9418,2.9419,2.9536,2.9539,2.9541,0,0,0,0,0,0,2.9462,2.9465,2.9484,2.9471,2.9472,2.9449,2.9459,2.9453,2.9457,2.9437,2.9433,2.9438,2.9421,2.9422,2.9453,2.9483,2.9419,2.942,2.9534,2.9537,2.954,2.9604,0,0,0,0,0,0,2.9461,2.9465,2.9485,2.9472,2.9473,2.9512,2.946,2.9455,2.946,2.9454,2.9444,2.944,2.9419,2.9451,2.9454,2.9484,2.9422,2.9531,2.9535,2.9539,2.9599,2.9609,2.9618,0,0,0,0,0,2.946,2.9504,2.9486,2.9489,2.9497,2.9514,2.9515,2.949,2.9463,2.9482,2.9469,2.944,2.9479,2.9454,2.9458,2.9489,2.9529,2.9534,2.9539,2.9595,2.9607,2.9618,0,0,0,0,0,0,2.9522,2.9502,2.9482,2.9522,2.952,2.9505,2.9528,2.9504,2.951,2.9504,2.9473,2.9471,2.9507,2.9501,2.9473,2.9538,2.9499,2.9505,2.9541,2.9552,2.9561,2.9562,2.9423,0,0,0,0,0,2.954,2.9556,2.9537,2.9575,2.9575,2.9552,2.9558,2.9539,2.9536,2.9535,2.9525,2.9523,2.9535,2.9543,2.9553,2.9598,2.9595,2.9621,2.963,2.9638,2.9644,2.9667,2.9678,2.9558,2.9558,2.9558,0,0,2.9578,2.9569,2.9581,2.9587,2.9583,2.96,2.9552,2.9572,2.9584,2.9538,2.9566,2.9559,2.9555,2.9593,2.9609,2.9589,2.9676,2.9644,2.9651,2.9652,2.9673,2.9684,2.9694,2.9561,2.956,2.956,0,0,2.9656,2.965,2.968,2.9678,2.9672,2.9657,2.9664,2.9652,2.9645,2.9672,2.9638,2.9652,2.9673,2.9671,2.9673,2.975,2.9723,2.9754,2.9802,2.9825,2.9834,2.9843,2.9869,2.9879,2.9759,2.9759,2.9759,0,2.9703,2.9727,2.9699,2.9721,2.9724,2.9684,2.9714,2.9712,2.9711,2.9714,2.9692,2.9716,2.9711,2.9748,2.9766,2.9769,2.9776,2.9755,2.9835,2.9843,2.9851,2.9876,2.9886,2.9763,2.9763,2.9762,2.9762,0,2.9786,2.9803,2.9828,2.9827,2.9833,2.9859,2.9835,2.9844,2.9825,2.9811,2.984,2.9831,2.9838,2.9846,2.9827,2.988,2.9867,2.9841,2.9801,2.9866,2.9889,2.9899,2.9768,2.9767,2.9766,2.9765,0,0,2.9903,2.9885,2.9894,2.9893,2.9884,2.9896,2.992,2.9927,2.9935,2.9936,2.9955,2.9973,2.9948,2.995,2.9931,2.9951,3.0011,2.9921,2.9921,2.9938,3.0068,3.0088,3.01,2.9993,2.9995,2.9996,3.0068,0,2.9976,3.0016,2.9991,3.0034,3.0049,3.001,3.0031,3.0028,3.0016,3.0027,3.0014,3.0027,2.9994,2.9994,3.0013,3.0,3.0037,2.9994,3.0011,3.0012,3.0013,3.0112,3.0133,3.0201,3.0077,3.0079,3.008,0,3.0068,3.0071,3.0116,3.0103,3.0108,3.0128,3.0131,3.0142,3.0137,3.0127,3.013,3.0105,3.0127,3.0088,3.0119,3.0091,3.0096,3.0091,3.0093,3.0093,3.005,3.0115,3.0222,3.0233,3.0094,3.0093,3.0092,0,3.0148,3.0164,3.0192,3.0192,3.0178,3.0192,3.0187,3.018,3.0185,3.0188,3.0191,3.0197,3.0201,3.0206,3.0183,3.0157,3.0217,3.0176,3.0209,3.021,3.0223,3.0223,3.0333,3.0228,3.0227,3.0227,3.0227,0,3.0233,3.0262,3.0228,3.0245,3.0276,3.0247,3.0279,3.0269,3.0264,3.0279,3.0246,3.0261,3.023,3.0242,3.0225,3.0252,3.0254,3.0247,3.0242,3.0249,3.025,3.0252,3.0247,3.023,3.0229,3.0229,3.0228,0,3.0327,3.0306,3.0334,3.0318,3.0314,3.0338,3.0324,3.034,3.0325,3.0345,3.0348,3.0326,3.0338,3.0316,3.0326,3.0314,3.0352,3.034,3.0354,3.035,3.0384,3.0382,3.05,3.0514,3.04,3.0401,3.0402,0,3.0383,3.0404,3.039,3.0397,3.0393,3.0406,3.0411,3.0383,3.0389,3.0385,3.0401,3.041,3.0416,3.0438,3.0422,3.043,3.0417,3.0458,3.0418,3.0425,3.0417,3.0416,3.0418,3.0466,3.0468,3.0469,3.047,0,3.0484,3.0471,3.0479,3.0483,3.049,3.0492,3.0492,3.05,3.047,3.0479,3.0491,3.0495,3.0504,3.0514,3.0517,3.0512,3.0486,3.0483,3.0491,3.0499,3.0506,3.0502,3.0376,3.048,3.0479,3.0478,3.0478,3.0477,3.056,3.0576,3.0569,3.0578,3.0575,3.0575,3.0589,3.0576,3.0585,3.059,3.0573,3.0588,3.0582,3.0584,3.0582,3.0594,3.0575,3.0587,3.059,3.0593,3.0599,3.0504,3.0594,3.0594,3.0593,3.0593,3.0593,0,3.0658,3.0651,3.066,3.066,3.0668,3.0642,3.064,3.0648,3.0662,3.0659,3.0665,3.0678,3.0687,3.0673,3.0679,3.0691,3.068,3.0694,3.0693,3.0692,3.0615,3.0607,3.0703,3.0703,3.0703,3.0703,3.0703,3.0703,3.0711,3.0737,3.0724,3.0748,3.0741,3.0755,3.0756,3.0756,3.0753,3.0769,3.0776,3.0766,3.0758,3.0764,3.0771,3.0766,3.077,3.0789,3.078,3.0708,3.0698,3.0687,3.068,3.079,3.079,3.0857,3.0857,3.0858]}]]